Tracking 19562 objects as of 22-Mar-2019
HD Live streaming from Space Station
objects crossing your sky now

AMC-2 (GE-2)

Track AMC-2 (GE-2) now!
AMC-2 (GE-2) is classified as:


NORAD ID: 24713
Int'l Code: 1997-002A
Perigee: 35,770.3 km
Apogee: 35,818.1 km
Inclination: 5.5 °
Period: 1,436.1 minutes
Semi major axis: 42165 km
RCS: 28.4382 m2 (large)
Launch date: January 30, 1997
Source: SOCIETE EUROPEENNE DES SATELLITES (SES)
Launch site: FRENCH GUIANA (FRGUI)

Broadcasting, business, cable; CONUS, Hawaii, Caribbean, southern Canada; 24 Ku- and 24 C-band
aabbcc
Your satellite tracking list
Your tracking list is empty




NASA's NSSDC Master Catalog

Two Line Element Set (TLE):
1 24713U 97002A   19080.99642692 -.00000233  00000-0  00000+0 0  9998
2 24713   5.5220  62.7005 0005677 303.3579  86.9858  1.00270139 31818
Source of the keplerian elements: AFSPC